| time (UTC) | temp C | wind direction | speed KPH | gust KPH | rain 1hr cm | rain 24hr cm | rain mn cm | humidity % | barometer mb |
| 20260505140123 | 12 | 157 | 0.0 | 1.6 | 0.00 | 0.00 | 0.00 | 77 | 1013.0 |
| 20260505130146 | 11 | 137 | 0.0 | 9.7 | 0.00 | 0.00 | 0.00 | 78 | 1012.6 |
| 20260505124122 | 12 | 137 | 1.6 | 4.8 | 0.00 | 0.00 | 0.00 | 77 | 1012.4 |
| 20260505123120 | 12 | 134 | 0.0 | 3.2 | 0.00 | 0.00 | 0.00 | 77 | 1012.3 |
| 20260505122114 | 12 | 143 | 0.0 | 1.6 | 0.00 | 0.00 | 0.00 | 76 | 1012.3 |
| 20260505121114 | 12 | 131 | 0.0 | 8.0 | 0.00 | 0.00 | 0.00 | 76 | 1012.3 |
| 20260505120112 | 12 | 127 | 0.0 | 6.4 | 0.00 | 0.00 | 0.00 | 75 | 1012.2 |
| 20260505115147 | 12 | 127 | 0.0 | 9.7 | 0.00 | 0.00 | 0.00 | 75 | 1012.1 |
| 20260505114142 | 12 | 164 | 0.0 | 8.0 | 0.00 | 0.00 | 0.00 | 76 | 1012.1 |
| 20260505113144 | 12 | 101 | 0.0 | 4.8 | 0.00 | 0.00 | 0.00 | 76 | 1012.1 |
| 20260505112140 | 12 | 139 | 0.0 | 6.4 | 0.00 | 0.00 | 0.00 | 76 | 1012.1 |
| 20260505111116 | 12 | 129 | 1.6 | 12.9 | 0.00 | 0.00 | 0.00 | 76 | 1012.0 |
| 20260505110114 | 12 | 150 | 0.0 | 11.3 | 0.00 | 0.00 | 0.00 | 76 | 1012.0 |
| 20260505102119 | 13 | 152 | 0.0 | 8.0 | 0.00 | 0.00 | 0.00 | 73 | 1011.9 |
| 20260505101115 | 13 | 153 | 0.0 | 6.4 | 0.00 | 0.00 | 0.00 | 73 | 1011.8 |
| 20260505100111 | 13 | 141 | 0.0 | 3.2 | 0.00 | 0.00 | 0.00 | 73 | 1011.7 |
| 20260505095147 | 13 | 129 | 1.6 | 6.4 | 0.00 | 0.00 | 0.00 | 73 | 1011.6 |
| 20260505094126 | 13 | 137 | 0.0 | 1.6 | 0.00 | 0.00 | 0.00 | 72 | 1011.4 |
| 20260505093124 | 13 | 136 | 1.6 | 4.8 | 0.00 | 0.00 | 0.00 | 71 | 1011.4 |
| 20260505092117 | 13 | 139 | 1.6 | 9.7 | 0.00 | 0.00 | 0.00 | 71 | 1011.4 |
| 20260505091119 | 13 | 133 | 0.0 | 9.7 | 0.00 | 0.00 | 0.00 | 70 | 1011.4 |
| 20260505090116 | 13 | 157 | 0.0 | 4.8 | 0.00 | 0.00 | 0.00 | 70 | 1011.4 |
| 20260505085112 | 14 | 163 | 0.0 | 8.0 | 0.00 | 0.00 | 0.00 | 70 | 1011.3 |
| 20260505084113 | 14 | 160 | 0.0 | 4.8 | 0.00 | 0.00 | 0.00 | 70 | 1011.2 |
| 20260505083129 | 14 | 136 | 0.0 | 3.2 | 0.00 | 0.00 | 0.00 | 71 | 1011.2 |
| 20260505082124 | 14 | 108 | 0.0 | 1.6 | 0.00 | 0.00 | 0.00 | 71 | 1011.2 |
| 20260505081119 | 14 | 134 | 0.0 | 0.0 | 0.00 | 0.00 | 0.00 | 71 | 1011.1 |
| 20260505080121 | 15 | 153 | 0.0 | 4.8 | 0.00 | 0.00 | 0.00 | 70 | 1011.2 |
| 20260505075117 | 15 | 148 | 0.0 | 3.2 | 0.00 | 0.00 | 0.00 | 71 | 1011.2 |
| 20260505074112 | 15 | 139 | 0.0 | 1.6 | 0.00 | 0.00 | 0.00 | 70 | 1011.0 |
| 20260505073114 | 15 | 178 | 0.0 | 0.0 | 0.00 | 0.00 | 0.00 | 69 | 1010.9 |
| 20260505072110 | 15 | 145 | 1.6 | 6.4 | 0.00 | 0.00 | 0.00 | 69 | 1010.8 |
| 20260505071128 | 15 | 140 | 0.0 | 1.6 | 0.00 | 0.00 | 0.00 | 69 | 1010.7 |
| 20260505070124 | 15 | 100 | 0.0 | 1.6 | 0.00 | 0.00 | 0.00 | 69 | 1010.8 |
| 20260505065125 | 15 | 148 | 0.0 | 0.0 | 0.00 | 0.00 | 0.00 | 69 | 1010.7 |
| 20260505064121 | 16 | 148 | 0.0 | 1.6 | 0.00 | 0.00 | 0.00 | 67 | 1010.6 |
| 20260505063119 | 16 | 113 | 0.0 | 3.2 | 0.00 | 0.00 | 0.00 | 66 | 1010.5 |
| 20260505062141 | 16 | 141 | 0.0 | 6.4 | 0.00 | 0.00 | 0.00 | 65 | 1010.5 |
| 20260505061117 | 16 | 141 | 0.0 | 3.2 | 0.00 | 0.00 | 0.00 | 64 | 1010.4 |
| 20260505060115 | 17 | 138 | 0.0 | 6.4 | 0.00 | 0.00 | 0.00 | 63 | 1010.3 |
| 20260505055115 | 17 | 167 | 0.0 | 1.6 | 0.00 | 0.00 | 0.00 | 63 | 1010.3 |
| 20260505054132 | 17 | 146 | 0.0 | 11.3 | 0.00 | 0.00 | 0.00 | 62 | 1010.3 |
| 20260505053128 | 17 | 108 | 0.0 | 6.4 | 0.00 | 0.00 | 0.00 | 62 | 1010.3 |
| 20260505052145 | 17 | 141 | 1.6 | 6.4 | 0.00 | 0.00 | 0.00 | 61 | 1010.3 |
| 20260505051140 | 17 | 136 | 1.6 | 8.0 | 0.00 | 0.00 | 0.00 | 61 | 1010.3 |
| 20260505050118 | 17 | 141 | 1.6 | 6.4 | 0.00 | 0.00 | 0.00 | 60 | 1010.2 |
| 20260505041139 | 19 | 168 | 0.0 | 12.9 | 0.00 | 0.00 | 0.00 | 56 | 1009.8 |
| 20260505040116 | 19 | 132 | 0.0 | 6.4 | 0.00 | 0.00 | 0.00 | 56 | 1009.8 |
| 20260505035116 | 19 | 131 | 0.0 | 9.7 | 0.00 | 0.00 | 0.00 | 55 | 1009.6 |
| 20260505034111 | 19 | 121 | 1.6 | 8.0 | 0.00 | 0.00 | 0.00 | 55 | 1009.5 |
| 20260505033148 | 19 | 120 | 4.8 | 12.9 | 0.00 | 0.00 | 0.00 | 54 | 1009.4 |
| 20260505032123 | 20 | 139 | 0.0 | 14.5 | 0.00 | 0.00 | 0.00 | 54 | 1009.2 |
| 20260505031124 | 20 | 159 | 0.0 | 6.4 | 0.00 | 0.00 | 0.00 | 53 | 1009.1 |
| 20260505030122 | 21 | 116 | 1.6 | 8.0 | 0.00 | 0.00 | 0.00 | 51 | 1009.0 |
| 20260505025120 | 21 | 106 | 0.0 | 6.4 | 0.00 | 0.00 | 0.00 | 50 | 1009.0 |
| 20260505024120 | 21 | 149 | 0.0 | 9.7 | 0.00 | 0.00 | 0.00 | 49 | 1008.9 |
| 20260505023117 | 22 | 103 | 4.8 | 11.3 | 0.00 | 0.00 | 0.00 | 48 | 1008.9 |
| 20260505022114 | 22 | 136 | 0.0 | 11.3 | 0.00 | 0.00 | 0.00 | 47 | 1008.8 |
| 20260505021114 | 22 | 103 | 3.2 | 14.5 | 0.00 | 0.00 | 0.00 | 44 | 1008.7 |
| 20260505020111 | 23 | 135 | 3.2 | 12.9 | 0.00 | 0.00 | 0.00 | 43 | 1008.5 |
| 20260505015128 | 23 | 148 | 0.0 | 8.0 | 0.00 | 0.00 | 0.00 | 41 | 1008.6 |
| 20260505014125 | 24 | 129 | 3.2 | 16.1 | 0.00 | 0.00 | 0.00 | 39 | 1008.5 |
| 20260505013127 | 25 | 134 | 3.2 | 14.5 | 0.00 | 0.00 | 0.00 | 37 | 1008.6 |
| 20260505012124 | 25 | 146 | 3.2 | 9.7 | 0.00 | 0.00 | 0.00 | 36 | 1008.7 |
| 20260505011122 | 25 | 148 | 1.6 | 16.1 | 0.00 | 0.00 | 0.00 | 38 | 1008.7 |
| 20260505010142 | 26 | 135 | 0.0 | 9.7 | 0.00 | 0.00 | 0.00 | 37 | 1008.7 |
| 20260505005119 | 26 | 108 | 1.6 | 8.0 | 0.00 | 0.00 | 0.00 | 35 | 1008.6 |
| 20260505004114 | 26 | 129 | 0.0 | 9.7 | 0.00 | 0.00 | 0.00 | 35 | 1008.5 |
| 20260505003133 | 26 | 141 | 6.4 | 19.3 | 0.00 | 0.00 | 0.00 | 34 | 1008.6 |
| 20260505002110 | 26 | 148 | 4.8 | 14.5 | 0.00 | 0.00 | 0.00 | 33 | 1008.4 |
| 20260505001128 | 26 | 144 | 4.8 | 16.1 | 0.00 | 0.00 | 0.00 | 31 | 1008.5 |
| 20260505000124 | 27 | 143 | 4.8 | 14.5 | 0.00 | 0.00 | 0.00 | 32 | 1008.3 |
| 20260504235124 | 27 | 136 | 1.6 | 19.3 | 0.00 | 0.00 | 0.00 | 32 | 1008.4 |
| 20260504234120 | 27 | 134 | 4.8 | 16.1 | 0.00 | 0.00 | 0.00 | 30 | 1008.3 |
| 20260504233118 | 27 | 117 | 1.6 | 19.3 | 0.00 | 0.00 | 0.00 | 31 | 1008.2 |
| 20260504232133 | 27 | 141 | 1.6 | 12.9 | 0.00 | 0.00 | 0.00 | 31 | 1008.3 |
| 20260504231114 | 27 | 154 | 4.8 | 11.3 | 0.00 | 0.00 | 0.00 | 30 | 1008.5 |
| 20260504230111 | 27 | 131 | 3.2 | 11.3 | 0.00 | 0.00 | 0.00 | 29 | 1008.5 |
| 20260504225129 | 27 | 139 | 6.4 | 14.5 | 0.00 | 0.00 | 0.00 | 29 | 1008.5 |
| 20260504224129 | 27 | 131 | 3.2 | 12.9 | 0.00 | 0.00 | 0.00 | 30 | 1008.7 |
| 20260504223123 | 28 | 142 | 6.4 | 16.1 | 0.00 | 0.00 | 0.00 | 29 | 1008.7 |
| 20260504222120 | 28 | 148 | 3.2 | 14.5 | 0.00 | 0.00 | 0.00 | 30 | 1008.7 |
| 20260504221121 | 28 | 138 | 1.6 | 12.9 | 0.00 | 0.00 | 0.00 | 27 | 1008.8 |
| 20260504220119 | 28 | 155 | 1.6 | 11.3 | 0.00 | 0.00 | 0.00 | 28 | 1008.8 |
| 20260504215116 | 28 | 141 | 4.8 | 16.1 | 0.00 | 0.00 | 0.00 | 27 | 1009.0 |
| 20260504214111 | 28 | 136 | 1.6 | 9.7 | 0.00 | 0.00 | 0.00 | 29 | 1009.0 |
| 20260504213114 | 28 | 153 | 3.2 | 14.5 | 0.00 | 0.00 | 0.00 | 28 | 1009.0 |
| 20260504212151 | 28 | 139 | 3.2 | 12.9 | 0.00 | 0.00 | 0.00 | 27 | 1009.2 |
| 20260504211126 | 28 | 145 | 4.8 | 9.7 | 0.00 | 0.00 | 0.00 | 27 | 1009.2 |
| 20260504210127 | 28 | 115 | 1.6 | 8.0 | 0.00 | 0.00 | 0.00 | 28 | 1009.2 |
| 20260504205124 | 28 | 147 | 0.0 | 8.0 | 0.00 | 0.00 | 0.00 | 26 | 1009.4 |
| 20260504204142 | 28 | 94 | 0.0 | 11.3 | 0.00 | 0.00 | 0.00 | 26 | 1009.4 |
| 20260504203120 | 27 | 147 | 4.8 | 14.5 | 0.00 | 0.00 | 0.00 | 26 | 1009.5 |
| 20260504202120 | 28 | 159 | 4.8 | 11.3 | 0.00 | 0.00 | 0.00 | 27 | 1009.5 |
| 20260504201116 | 27 | 160 | 0.0 | 9.7 | 0.00 | 0.00 | 0.00 | 27 | 1009.5 |
| 20260504200113 | 27 | 92 | 1.6 | 8.0 | 0.00 | 0.00 | 0.00 | 25 | 1009.7 |
| 20260504195112 | 27 | 159 | 4.8 | 11.3 | 0.00 | 0.00 | 0.00 | 24 | 1009.7 |
| 20260504194127 | 27 | 138 | 1.6 | 9.7 | 0.00 | 0.00 | 0.00 | 26 | 1009.8 |
| 20260504193123 | 27 | 148 | 3.2 | 8.0 | 0.00 | 0.00 | 0.00 | 25 | 1009.8 |
| 20260504192118 | 27 | 149 | 1.6 | 9.7 | 0.00 | 0.00 | 0.00 | 25 | 1010.0 |
| 20260504191119 | 27 | 169 | 0.0 | 12.9 | 0.00 | 0.00 | 0.00 | 28 | 1010.0 |
| 20260504190116 | 27 | 156 | 1.6 | 4.8 | 0.00 | 0.00 | 0.00 | 26 | 1010.0 |
| 20260504185113 | 27 | 135 | 0.0 | 6.4 | 0.00 | 0.00 | 0.00 | 26 | 1010.0 |
| 20260504184113 | 27 | 169 | 1.6 | 9.7 | 0.00 | 0.00 | 0.00 | 32 | 1010.1 |
| 20260504183130 | 26 | 148 | 1.6 | 12.9 | 0.00 | 0.00 | 0.00 | 27 | 1010.1 |
| 20260504182127 | 26 | 155 | 1.6 | 8.0 | 0.00 | 0.00 | 0.00 | 35 | 1010.2 |
| 20260504181124 | 25 | 166 | 1.6 | 9.7 | 0.00 | 0.00 | 0.00 | 38 | 1010.3 |
| 20260504180125 | 25 | 174 | 1.6 | 6.4 | 0.00 | 0.00 | 0.00 | 42 | 1010.2 |
| 20260504175122 | 25 | 170 | 0.0 | 1.6 | 0.00 | 0.00 | 0.00 | 42 | 1010.3 |
| 20260504174118 | 23 | 176 | 0.0 | 1.6 | 0.00 | 0.00 | 0.00 | 42 | 1010.3 |
| 20260504173120 | 22 | 160 | 0.0 | 3.2 | 0.00 | 0.00 | 0.00 | 46 | 1010.4 |
| 20260504172117 | 22 | 138 | 0.0 | 1.6 | 0.00 | 0.00 | 0.00 | 47 | 1010.5 |
| 20260504171113 | 21 | 113 | 0.0 | 4.8 | 0.00 | 0.00 | 0.00 | 57 | 1010.5 |
| 20260504170113 | 20 | 147 | 0.0 | 3.2 | 0.00 | 0.00 | 0.00 | 58 | 1010.5 |
| 20260504160117 | 18 | 90 | 0.0 | 4.8 | 0.00 | 0.00 | 0.00 | 62 | 1010.7 |
| 20260504151111 | 13 | 104 | 0.0 | 1.6 | 0.00 | 0.00 | 0.00 | 78 | 1010.8 |
| 20260504150129 | 12 | 110 | 0.0 | 0.0 | 0.00 | 0.00 | 0.00 | 82 | 1010.7 |